| time (UTC) | temp C | wind direction | speed KPH | gust KPH | rain 1hr cm | rain 24hr cm | rain mn cm | humidity % | barometer mb |
| 20260903113035 | 23 | 267 | 0.0 | 3.2 | 0.00 | 0.00 | 0.00 | 49 | 1021.5 |
| 20260903111534 | 23 | 315 | 0.0 | 6.4 | 0.00 | 0.00 | 0.00 | 48 | 1021.7 |
| 20260903110032 | 23 | 277 | 0.0 | 9.7 | 0.00 | 0.00 | 0.00 | 48 | 1021.6 |
| 20260903104533 | 23 | 198 | 1.6 | 9.7 | 0.00 | 0.00 | 0.00 | 50 | 1022.0 |
| 20260903103032 | 23 | 292 | 0.0 | 4.8 | 0.00 | 0.00 | 0.00 | 52 | 1022.0 |
| 20260903101542 | 23 | 259 | 0.0 | 8.0 | 0.00 | 0.00 | 0.00 | 51 | 1022.1 |
| 20260903100033 | 23 | 255 | 0.0 | 6.4 | 0.00 | 0.00 | 0.00 | 51 | 1022.4 |
| 20260903094526 | 22 | 303 | 0.0 | 4.8 | 0.00 | 0.00 | 0.00 | 50 | 1022.0 |
| 20260903093025 | 22 | 295 | 0.0 | 8.0 | 0.00 | 0.00 | 0.00 | 53 | 1022.2 |
| 20260903091521 | 21 | 301 | 0.0 | 8.0 | 0.00 | 0.00 | 0.00 | 53 | 1022.6 |
| 20260903090017 | 21 | 317 | 0.0 | 9.7 | 0.00 | 0.00 | 0.00 | 56 | 1022.5 |
| 20260903084526 | 20 | 274 | 0.0 | 6.4 | 0.00 | 0.00 | 0.00 | 62 | 1022.2 |
| 20260903083019 | 19 | 232 | 0.0 | 4.8 | 0.00 | 0.00 | 0.00 | 69 | 1022.4 |
| 20260903081507 | 18 | 300 | 0.0 | 4.8 | 0.00 | 0.00 | 0.00 | 70 | 1022.6 |
| 20260903080006 | 17 | 286 | 0.0 | 4.8 | 0.00 | 0.00 | 0.00 | 74 | 1022.6 |
| 20260903074605 | 17 | 294 | 0.0 | 0.0 | 0.00 | 0.00 | 0.00 | 76 | 1022.7 |
| 20260903073057 | 16 | 294 | 0.0 | 1.6 | 0.00 | 0.00 | 0.00 | 79 | 1022.7 |
| 20260903071555 | 15 | 294 | 0.0 | 0.0 | 0.00 | 0.00 | 0.00 | 81 | 1022.8 |
| 20260903070054 | 15 | 294 | 0.0 | 1.6 | 0.00 | 0.00 | 0.00 | 83 | 1022.7 |
| 20260903064602 | 14 | 294 | 0.0 | 1.6 | 0.00 | 0.00 | 0.00 | 86 | 1022.4 |
| 20260903063054 | 13 | 294 | 0.0 | 0.0 | 0.00 | 0.00 | 0.00 | 88 | 1022.7 |
| 20260903061554 | 12 | 294 | 0.0 | 0.0 | 0.00 | 0.00 | 0.00 | 89 | 1022.6 |
| 20260903060055 | 12 | 294 | 0.0 | 0.0 | 0.00 | 0.00 | 0.00 | 91 | 1022.9 |
| 20260903054552 | 11 | 294 | 0.0 | 0.0 | 0.00 | 0.00 | 0.00 | 92 | 1022.8 |
| 20260903053103 | 11 | 294 | 0.0 | 0.0 | 0.00 | 0.00 | 0.00 | 92 | 1022.6 |
| 20260903051550 | 11 | 294 | 0.0 | 0.0 | 0.00 | 0.00 | 0.00 | 92 | 1022.3 |
| 20260903050046 | 11 | 294 | 0.0 | 0.0 | 0.00 | 0.00 | 0.00 | 91 | 1022.1 |
| 20260903044546 | 11 | 294 | 0.0 | 0.0 | 0.00 | 0.00 | 0.00 | 91 | 1021.9 |
| 20260903043044 | 11 | 294 | 0.0 | 0.0 | 0.00 | 0.00 | 0.00 | 91 | 1021.9 |
| 20260903041601 | 11 | 294 | 0.0 | 0.0 | 0.00 | 0.00 | 0.00 | 91 | 1022.0 |
| 20260903040057 | 11 | 294 | 0.0 | 0.0 | 0.00 | 0.00 | 0.00 | 91 | 1022.1 |
| 20260903034542 | 11 | 294 | 0.0 | 0.0 | 0.00 | 0.00 | 0.00 | 91 | 1022.2 |
| 20260903033044 | 11 | 294 | 0.0 | 0.0 | 0.00 | 0.00 | 0.00 | 91 | 1022.3 |
| 20260903031539 | 12 | 294 | 0.0 | 0.0 | 0.00 | 0.00 | 0.00 | 91 | 1022.1 |
| 20260903030042 | 12 | 294 | 0.0 | 0.0 | 0.00 | 0.00 | 0.00 | 90 | 1022.1 |
| 20260903024537 | 12 | 294 | 0.0 | 0.0 | 0.00 | 0.00 | 0.00 | 90 | 1022.1 |
| 20260903023036 | 12 | 294 | 0.0 | 0.0 | 0.00 | 0.00 | 0.00 | 90 | 1022.2 |
| 20260903021538 | 12 | 294 | 0.0 | 0.0 | 0.00 | 0.00 | 0.00 | 90 | 1022.1 |
| 20260903020033 | 12 | 294 | 0.0 | 0.0 | 0.00 | 0.00 | 0.00 | 90 | 1022.1 |
| 20260903014531 | 12 | 294 | 0.0 | 0.0 | 0.00 | 0.00 | 0.00 | 89 | 1022.1 |
| 20260903013029 | 13 | 294 | 0.0 | 0.0 | 0.00 | 0.00 | 0.00 | 88 | 1022.1 |
| 20260903011528 | 13 | 294 | 0.0 | 0.0 | 0.00 | 0.00 | 0.00 | 88 | 1022.2 |
| 20260903010026 | 13 | 294 | 0.0 | 0.0 | 0.00 | 0.00 | 0.00 | 88 | 1022.1 |
| 20260903004524 | 13 | 294 | 0.0 | 0.0 | 0.00 | 0.00 | 0.00 | 87 | 1021.9 |
| 20260903003022 | 13 | 294 | 0.0 | 0.0 | 0.00 | 0.00 | 0.00 | 87 | 1021.9 |
| 20260903001525 | 14 | 294 | 0.0 | 0.0 | 0.00 | 0.00 | 0.00 | 86 | 1021.8 |
| 20260903000023 | 14 | 294 | 0.0 | 0.0 | 0.00 | 0.00 | 0.00 | 85 | 1021.8 |
| 20260902234516 | 15 | 294 | 0.0 | 0.0 | 0.00 | 0.00 | 0.00 | 85 | 1021.9 |
| 20260902233015 | 15 | 294 | 0.0 | 0.0 | 0.00 | 0.00 | 0.00 | 84 | 1021.8 |
| 20260902231522 | 15 | 294 | 0.0 | 0.0 | 0.00 | 0.00 | 0.00 | 84 | 1021.8 |
| 20260902230011 | 15 | 294 | 0.0 | 0.0 | 0.00 | 0.00 | 0.00 | 84 | 1021.8 |
| 20260902224510 | 15 | 294 | 0.0 | 0.0 | 0.00 | 0.00 | 0.00 | 83 | 1021.7 |
| 20260902223008 | 16 | 294 | 0.0 | 0.0 | 0.00 | 0.00 | 0.00 | 82 | 1021.7 |
| 20260902221506 | 16 | 294 | 0.0 | 0.0 | 0.00 | 0.00 | 0.00 | 81 | 1021.7 |
| 20260902214620 | 16 | 294 | 0.0 | 0.0 | 0.00 | 0.00 | 0.00 | 80 | 1021.7 |
| 20260902213050 | 16 | 294 | 0.0 | 0.0 | 0.00 | 0.00 | 0.00 | 79 | 1021.6 |
| 20260902211548 | 16 | 294 | 0.0 | 0.0 | 0.00 | 0.00 | 0.00 | 78 | 1021.6 |
| 20260902210055 | 17 | 294 | 0.0 | 0.0 | 0.00 | 0.00 | 0.00 | 77 | 1021.5 |
| 20260902204547 | 17 | 294 | 0.0 | 0.0 | 0.00 | 0.00 | 0.00 | 76 | 1021.4 |
| 20260902203048 | 17 | 294 | 0.0 | 0.0 | 0.00 | 0.00 | 0.00 | 75 | 1021.3 |
| 20260902201548 | 17 | 294 | 0.0 | 0.0 | 0.00 | 0.00 | 0.00 | 74 | 1021.2 |
| 20260902200045 | 18 | 294 | 0.0 | 0.0 | 0.00 | 0.00 | 0.00 | 72 | 1021.1 |
| 20260902194547 | 18 | 294 | 0.0 | 0.0 | 0.00 | 0.00 | 0.00 | 72 | 1021.1 |
| 20260902193046 | 18 | 294 | 0.0 | 0.0 | 0.00 | 0.00 | 0.00 | 70 | 1021.0 |
| 20260902191555 | 18 | 294 | 0.0 | 0.0 | 0.00 | 0.00 | 0.00 | 68 | 1020.9 |
| 20260902190053 | 19 | 294 | 0.0 | 0.0 | 0.00 | 0.00 | 0.00 | 66 | 1020.7 |
| 20260902184543 | 20 | 294 | 0.0 | 0.0 | 0.00 | 0.00 | 0.00 | 64 | 1020.7 |
| 20260902183043 | 20 | 294 | 0.0 | 0.0 | 0.00 | 0.00 | 0.00 | 61 | 1020.4 |
| 20260902181549 | 21 | 294 | 0.0 | 0.0 | 0.00 | 0.00 | 0.00 | 59 | 1020.4 |
| 20260902180044 | 21 | 294 | 0.0 | 1.6 | 0.00 | 0.00 | 0.00 | 57 | 1020.1 |
| 20260902174543 | 22 | 294 | 0.0 | 1.6 | 0.00 | 0.00 | 0.00 | 55 | 1020.0 |
| 20260902173042 | 22 | 294 | 0.0 | 3.2 | 0.00 | 0.00 | 0.00 | 54 | 1019.9 |
| 20260902171603 | 22 | 294 | 0.0 | 3.2 | 0.00 | 0.00 | 0.00 | 53 | 1019.7 |
| 20260902170040 | 23 | 290 | 0.0 | 1.6 | 0.00 | 0.00 | 0.00 | 52 | 1019.7 |
| 20260902164541 | 23 | 243 | 0.0 | 3.2 | 0.00 | 0.00 | 0.00 | 52 | 1019.6 |
| 20260902163039 | 23 | 242 | 0.0 | 4.8 | 0.00 | 0.00 | 0.00 | 55 | 1019.7 |
| 20260902161545 | 23 | 217 | 0.0 | 6.4 | 0.00 | 0.00 | 0.00 | 53 | 1019.7 |
| 20260902160042 | 23 | 229 | 0.0 | 1.6 | 0.00 | 0.00 | 0.00 | 53 | 1019.6 |
| 20260902154538 | 23 | 265 | 0.0 | 6.4 | 0.00 | 0.00 | 0.00 | 53 | 1019.7 |
| 20260902153037 | 23 | 264 | 0.0 | 4.8 | 0.00 | 0.00 | 0.00 | 53 | 1019.6 |
| 20260902151542 | 24 | 267 | 0.0 | 6.4 | 0.00 | 0.00 | 0.00 | 51 | 1019.7 |
| 20260902150036 | 25 | 307 | 0.0 | 6.4 | 0.00 | 0.00 | 0.00 | 48 | 1019.7 |
| 20260902144536 | 25 | 241 | 0.0 | 4.8 | 0.00 | 0.00 | 0.00 | 50 | 1019.5 |
| 20260902143035 | 25 | 239 | 0.0 | 4.8 | 0.00 | 0.00 | 0.00 | 50 | 1019.6 |
| 20260902141545 | 24 | 288 | 0.0 | 4.8 | 0.00 | 0.00 | 0.00 | 48 | 1019.7 |
| 20260902140035 | 25 | 227 | 0.0 | 6.4 | 0.00 | 0.00 | 0.00 | 47 | 1019.7 |
| 20260902134537 | 25 | 280 | 0.0 | 1.6 | 0.00 | 0.00 | 0.00 | 45 | 1019.6 |
| 20260902133037 | 26 | 242 | 1.6 | 8.0 | 0.00 | 0.00 | 0.00 | 41 | 1019.5 |
| 20260902131533 | 26 | 281 | 3.2 | 8.0 | 0.00 | 0.00 | 0.00 | 41 | 1019.5 |
| 20260902130036 | 26 | 234 | 0.0 | 8.0 | 0.00 | 0.00 | 0.00 | 44 | 1019.7 |
| 20260902124529 | 26 | 281 | 0.0 | 4.8 | 0.00 | 0.00 | 0.00 | 44 | 1019.8 |
| 20260902123028 | 26 | 288 | 0.0 | 6.4 | 0.00 | 0.00 | 0.00 | 43 | 1019.9 |
| 20260902121525 | 25 | 269 | 0.0 | 4.8 | 0.00 | 0.00 | 0.00 | 46 | 1020.0 |
| 20260902120025 | 25 | 274 | 0.0 | 3.2 | 0.00 | 0.00 | 0.00 | 44 | 1020.0 |
| 20260902114527 | 26 | 267 | 0.0 | 6.4 | 0.00 | 0.00 | 0.00 | 47 | 1020.2 |